#timestamp,LO_Frequency,Hit 
1499018415.7,286047042.2,N
1499018435.6,286047041.4,N
1499018455.4,286047044.2,N
1499018475.2,286047044.4,N
1499018495.1,286047041.7,N
1499018496.0,286047041.7,N
1499018515.8,286047041.7,N
1499018535.6,286047043.0,N
1499018555.5,286047043.8,N
1499018575.3,286047045.7,N
1499018595.1,286047045.1,N
1499018615.8,286047045.8,N
1499018635.7,286047044.1,N
1499018655.5,286047044.9,N
1499018675.3,286047044.8,N
1499018695.2,286047045.4,N
1499018715.0,286047045.8,N
1499018715.9,286047045.8,N
1499018735.7,286047043.6,N
1499018755.6,286047043.3,N
1499018775.4,286047044.0,N
1499018795.2,286047043.4,N
1499018815.1,286047046.7,N
1499018816.0,286047046.7,N
1499018835.8,286047043.1,N
1499018855.6,286047043.4,N
1499018875.5,286047047.5,N
1499018895.3,286047045.1,N
1499018915.1,286047043.3,N
1499018935.9,286047043.1,N
1499018955.7,286047043.6,N
1499018975.5,286047044.0,N
1499018995.3,286047044.2,N
1499019015.2,286047043.7,N
1499019035.0,286047044.2,N
1499019035.9,286047044.2,N
1499019055.7,286047043.3,N
1499019075.6,286047043.3,N
1499019095.4,286047045.4,N
1499019115.2,286047045.2,N
1499019135.1,286047047.2,N
1499019136.0,286047047.2,N
1499019155.8,286047045.1,N
1499019175.6,286047047.6,N
1499019195.5,286047046.9,N
1499019215.3,286047048.9,N
1499019235.1,286047048.6,N
1499019255.9,286047050.7,N
1499019275.7,286047050.4,N
1499019295.5,286047050.5,N
1499019315.4,286047046.2,N
1499019335.2,286047044.6,N
1499019355.0,286047045.9,N
1499019355.9,286047045.9,N
1499019375.8,286047043.0,N
1499019395.6,286047044.6,N
1499019415.4,286047048.8,N
1499019435.2,286047049.9,N
1499019455.1,286047051.1,N
1499019456.0,286047051.1,N
1499019475.8,286047050.6,N
1499019495.6,286047052.4,N
1499019515.5,286047052.4,N
1499019535.3,286047049.3,N
1499019555.1,286047050.0,N
1499019575.9,286047049.8,N
1499019595.7,286047052.4,N
1499019615.5,286047048.9,N
1499019635.4,286047048.6,N
1499019655.2,286047048.5,N
1499019675.0,286047048.5,N
1499019675.9,286047048.5,N
1499019695.8,286047050.3,N
1499019715.6,286047047.7,N
1499019735.4,286047049.8,N
1499019755.3,286047052.0,N
1499019775.1,286047051.1,N
1499019776.0,286047051.1,N
1499019795.8,286047052.2,N
1499019815.6,286047053.3,N
1499019835.5,286047053.9,N
1499019855.3,286047051.3,N
1499019875.1,286047051.5,N
1499019895.9,286047051.3,N
1499019915.7,286047052.1,N
1499019935.5,286047051.8,N
1499019955.4,286047051.1,N
1499019975.2,286047051.1,N
1499019995.0,286047051.4,N
1499019995.9,286047051.4,N
1499020015.8,286047051.8,N
1499020035.6,286047051.7,N
1499020055.4,286047051.9,N
1499020075.3,286047049.3,N
1499020095.1,286047049.3,N
1499020096.0,286047049.3,N
1499020115.8,286047048.1,N
1499020135.7,286047050.8,N
1499020155.5,286047052.3,N
1499020175.3,286047051.0,N
1499020195.1,286047053.5,N
1499020215.9,286047052.9,N
1499020235.7,286047053.2,N
1499020255.5,286047053.7,N
1499020275.4,286047052.7,N
1499020295.2,286047050.9,N
1499020315.0,286047055.0,N
1499020315.9,286047055.0,N
1499020335.8,286047054.7,N
1499020355.6,286047054.9,N
1499020375.4,286047056.4,N
1499020395.3,286047054.5,N
1499020415.1,286047056.8,N
1499020416.0,286047056.8,N
1499020435.8,286047054.4,N
1499020455.7,286047057.0,N
1499020475.5,286047057.1,N
1499020495.3,286047057.0,N
1499020515.1,286047054.4,N
1499020535.9,286047056.9,N
1499020555.7,286047055.9,N
1499020575.5,286047057.9,N
1499020595.4,286047054.6,N
1499020615.2,286047057.0,N
1499020635.0,286047057.1,N
1499020635.9,286047057.1,N
1499020655.8,286047057.1,N
1499020675.6,286047056.0,N
1499020695.4,286047057.1,N
1499020715.3,286047057.0,N
1499020735.1,286047057.0,N
1499020736.0,286047057.0,N
1499020755.8,286047057.1,N
1499020775.7,286047056.3,N
1499020795.5,286047056.7,N
1499020815.3,286047057.0,N
1499020835.2,286047057.0,N
1499020855.9,286047056.2,N
1499020875.7,286047055.8,N
1499020895.5,286047056.8,N
1499020915.4,286047056.5,N
1499020935.2,286047056.3,N
1499020955.0,286047055.9,N
1499020955.9,286047055.9,N
1499020975.8,286047057.6,N
1499020995.6,286047057.9,N
1499021015.4,286047059.7,N
1499021035.3,286047057.9,N
1499021055.1,286047057.5,N
1499021075.8,286047057.5,N
1499021095.7,286047058.5,N
1499021115.5,286047058.2,N
1499021135.3,286047059.7,N
1499021155.2,286047057.3,N
1499021175.9,286047057.4,N
1499021195.7,286047059.2,N
1499021215.6,286047060.2,N
1499021235.4,286047060.2,N
1499021255.2,286047060.0,N
1499021275.0,286047061.8,N
1499021275.9,286047061.8,N
1499021295.8,286047061.9,N
1499021315.6,286047058.9,N
1499021335.4,286047063.1,N
1499021355.3,286047059.5,N
1499021375.1,286047062.0,N
1499021395.8,286047062.8,N
1499021415.7,286047063.4,N
1499021435.5,286047061.8,N
1499021455.3,286047060.8,N
1499021475.2,286047059.1,N
1499021495.9,286047059.1,N
1499021515.7,286047059.8,N
1499021535.6,286047061.8,N
1499021555.4,286047061.5,N
1499021575.2,286047061.9,N
1499021595.0,286047062.5,N
1499021595.9,286047062.5,N
1499021615.8,286047063.2,N
1499021635.6,286047063.6,N
1499021655.4,286047059.0,N
1499021675.3,286047061.8,N
1499021695.1,286047059.7,N
1499021696.0,286047059.7,N
1499021715.8,286047060.2,N
1499021735.7,286047061.3,N
1499021755.5,286047063.6,N
1499021775.3,286047060.9,N
1499021795.2,286047060.6,N
1499021815.9,286047061.8,N
1499021835.7,286047062.2,N
1499021855.5,286047063.1,N
1499021875.4,286047062.8,N
1499021895.2,286047063.4,N
1499021915.0,286047064.5,N
1499021915.9,286047064.5,N
1499021935.8,286047063.3,N
1499021955.6,286047062.7,N
1499021975.4,286047066.8,N
1499021995.3,286047063.7,N
